Regional Weather Roundup
Issued by NWS Midland/Odessa, TX

Skip options and go directly to product.
Home | Oldest Version | Previous Version | Current Version | All | Graphics & Text | Save Text | Print | Product List | Glossary On

Skip product version selection by date and time.   
117
ASUS44 KMAF 051201
RWRMAF
MIDLAND AREA WEATHER ROUNDUP
NATIONAL WEATHER SERVICE MIDLAND TX
600 AM CST THU MAR 05 2015

...IN SOUTHWEST TEXAS AND SOUTHEAST NEW MEXICO...

CITY           SKY/WX    TMP DP  RH WIND       PRES   REMARKS
ALPINE         CLOUDY    22  21  96 NE10      30.45R WCI  11
ANDREWS        CLOUDY    24  16  69 NE9       30.48R WCI  15
ARTESIA        CLOUDY    25  25 100 CALM      30.48R
BIG SPRING     CLOUDY    26  17  67 N12       30.51S WCI  16
CARLSBAD       CLOUDY    28  20  71 NE6       30.48R WCI  22
DRYDEN           N/A     31  23  72 N16       30.45R WCI  20
FORT STOCKTON  CLOUDY    25  25 100 N9        30.49R FOG     WCI  15
GUAD PASS      NOT AVBL
HOBBS          CLOUDY    25  18  74 N10       30.46S WCI  15
MARFA          CLOUDY    21  19  93 N18       30.35R WCI   6
MIDLAND AIRPK  CLOUDY    27  19  72 N8        30.49R WCI  18
MIDLAND INTL   CLOUDY    25  17  72 N14       30.49R WCI  13
ODESSA         CLOUDY    25  16  68 N12       30.49R WCI  14
PECOS          CLOUDY    28  25  88 N5        30.52R WCI  23
PRESIDIO       CLOUDY    36  24  62 N17G25    30.36R WCI  25
SEMINOLE       CLOUDY    25  16  67 N7        30.49R WCI  18
SNYDER         CLEAR     21  17  82 N6        30.50R WCI  14
WINK           CLOUDY    28  19  69 N12       30.50R WCI  18
$$
...OTHER STATIONS IN TEXAS...

CITY           SKY/WX    TMP DP  RH WIND       PRES   REMARKS
ABILENE        CLEAR     20  17  88 N9        30.51R WCI   9
AMARILLO       CLEAR     17  13  84 W8        30.44R WCI   7
AUSTIN         CLOUDY    32  28  85 N23G32    30.37R WCI  19
BROWNSVILLE    LGT RAIN  44  42  93 NW18G29   30.19R FOG     WCI  36
CORPUS CHRISTI CLOUDY    41  35  79 N31G37    30.26R WCI  30
DALLAS FTW     PTCLDY    24  18  77 N16       30.49R WCI  11
DEL RIO        CLOUDY    35  25  66 NW20G26   30.47R WCI  24
EL PASO        PTCLDY    32  22  66 E8        30.34R WCI  25
HOUSTON INT    LGT RAIN  41  37  86 N21G30    30.26R WCI  32
LUBBOCK        MOCLDY    22  18  85 N7        30.46R WCI  13
SAN ANGELO     PTCLDY    25  18  74 N15       30.50R WCI  13
SAN ANTONIO    CLOUDY    33  27  78 N20G28    30.34R WCI  21
WACO           CLOUDY    27  24  89 N22       30.44R WCI  13
WICHITA FALLS  NOT AVBL
$$
...OTHER LOCATIONS IN NEW MEXICO...

CITY           SKY/WX    TMP DP  RH WIND       PRES   REMARKS
ALAMAGORDO     CLEAR     28  23  80 S8        30.35R WCI  20
ALBUQUERQUE    CLEAR     24  18  77 N9        30.34R WCI  14
CANNON AFB     NOT AVBL
CLOVIS         PTCLDY    18  12  79 CALM      30.42S
HOLLOMAN AFB   NOT AVBL
ROSWELL        CLOUDY    26  21  81 CALM      30.46R
RUIDOSO        FOG       14  12  92 CALM      30.31R VSB 1
SANTA FE       CLEAR     15  10  80 NE5       30.30R WCI   8
TRUTH OR CONSE CLEAR     26  18  71 N9        30.32R WCI  17
TUCUMCARI      CLEAR     14  10  84 SW5       30.41R WCI   6
$$

USA.gov is the U.S. government's official web portal to all federal, state and local government web resources and services.